| time (UTC) | temp C | wind direction | speed KPH | gust KPH | rain 1hr cm | rain 24hr cm | rain mn cm | humidity % | barometer mb |
| 20260508043020 | 6 | 16 | 0.0 | 0.0 | 0.00 | 1.52 | 0.00 | 94 | 1002.0 |
| 20260508041517 | 7 | 16 | 0.0 | 0.0 | 0.00 | 1.52 | 0.00 | 94 | 1001.8 |
| 20260508040015 | 7 | 9 | 0.0 | 0.0 | 0.00 | 1.52 | 0.00 | 93 | 1002.0 |
| 20260508034513 | 8 | 16 | 0.0 | 0.0 | 0.00 | 1.52 | 0.00 | 94 | 1002.0 |
| 20260508033010 | 8 | 16 | 0.0 | 0.0 | 0.00 | 1.52 | 0.00 | 93 | 1002.0 |
| 20260508031506 | 8 | 16 | 0.0 | 0.0 | 0.00 | 1.52 | 0.00 | 94 | 1002.0 |
| 20260508030007 | 8 | 16 | 0.0 | 0.0 | 0.00 | 1.52 | 1.52 | 94 | 1002.0 |
| 20260508024504 | 9 | 15 | 0.0 | 0.0 | 0.00 | 1.52 | 1.52 | 94 | 1002.3 |
| 20260508023009 | 9 | 16 | 0.0 | 4.8 | 0.00 | 1.52 | 1.52 | 95 | 1001.8 |
| 20260508021504 | 8 | 16 | 0.0 | 0.0 | 0.00 | 1.52 | 1.52 | 95 | 1002.0 |
| 20260508020002 | 8 | 5 | 0.0 | 0.0 | 0.00 | 1.52 | 1.52 | 95 | 1001.9 |
| 20260508014502 | 8 | 11 | 0.0 | 0.0 | 0.00 | 1.52 | 1.52 | 95 | 1002.0 |
| 20260508013100 | 7 | 11 | 0.0 | 0.0 | 0.00 | 1.52 | 1.52 | 95 | 1001.6 |
| 20260508011607 | 7 | 11 | 0.0 | 0.0 | 0.00 | 1.52 | 1.52 | 94 | 1001.7 |
| 20260508010057 | 7 | 12 | 0.0 | 0.0 | 0.00 | 1.52 | 1.52 | 94 | 1001.9 |
| 20260508004558 | 8 | 12 | 0.0 | 0.0 | 0.00 | 1.52 | 1.52 | 94 | 1001.9 |
| 20260508003056 | 7 | 12 | 0.0 | 0.0 | 0.00 | 1.52 | 1.52 | 94 | 1002.2 |
| 20260508001551 | 8 | 15 | 0.0 | 1.6 | 0.00 | 1.52 | 1.52 | 93 | 1002.0 |
| 20260508000048 | 10 | 16 | 0.0 | 0.0 | 0.00 | 1.52 | 1.52 | 94 | 1001.7 |
| 20260507234557 | 10 | 13 | 0.0 | 0.0 | 0.00 | 1.52 | 1.52 | 94 | 1001.2 |
| 20260507233045 | 11 | 12 | 0.0 | 0.0 | 0.00 | 1.52 | 1.52 | 94 | 1001.2 |
| 20260507231549 | 11 | 12 | 0.0 | 0.0 | 0.00 | 1.52 | 1.52 | 94 | 1001.4 |
| 20260507230046 | 11 | 12 | 0.0 | 0.0 | 0.00 | 1.52 | 1.52 | 94 | 1001.2 |
| 20260507224544 | 11 | 13 | 0.0 | 0.0 | 0.00 | 1.52 | 1.52 | 94 | 1001.1 |
| 20260507223043 | 11 | 13 | 0.0 | 0.0 | 0.00 | 1.52 | 1.52 | 94 | 1001.0 |
| 20260507221545 | 11 | 12 | 0.0 | 4.8 | 0.03 | 1.52 | 1.52 | 94 | 1001.2 |
| 20260507220041 | 11 | 12 | 0.0 | 3.2 | 0.03 | 1.52 | 1.52 | 94 | 1001.1 |
| 20260507214540 | 11 | 11 | 0.0 | 16.1 | 0.03 | 1.52 | 1.52 | 94 | 1000.5 |
| 20260507213040 | 11 | 11 | 4.8 | 25.7 | 0.08 | 1.52 | 1.52 | 94 | 1001.1 |
| 20260507211539 | 11 | 11 | 0.0 | 6.4 | 0.18 | 1.50 | 1.50 | 94 | 1001.1 |
| 20260507210038 | 11 | 13 | 1.6 | 22.5 | 0.33 | 1.50 | 1.50 | 94 | 1001.1 |
| 20260507204536 | 11 | 10 | 3.2 | 20.9 | 0.46 | 1.50 | 1.50 | 94 | 1000.5 |
| 20260507203038 | 12 | 11 | 1.6 | 17.7 | 0.51 | 1.42 | 1.42 | 93 | 1001.3 |
| 20260507201532 | 12 | 11 | 1.6 | 14.5 | 0.56 | 1.32 | 1.32 | 93 | 1001.8 |
| 20260507200041 | 12 | 11 | 0.0 | 8.0 | 0.58 | 1.17 | 1.17 | 93 | 1002.2 |
| 20260507194526 | 12 | 12 | 0.0 | 12.9 | 0.66 | 1.04 | 1.04 | 93 | 1003.3 |
| 20260507193030 | 12 | 11 | 1.6 | 16.1 | 0.71 | 0.91 | 0.91 | 93 | 1003.3 |
| 20260507191524 | 12 | 11 | 0.0 | 8.0 | 0.71 | 0.76 | 0.76 | 93 | 1003.3 |
| 20260507190024 | 12 | 11 | 0.0 | 16.1 | 0.53 | 0.56 | 0.56 | 92 | 1003.4 |
| 20260507184523 | 12 | 11 | 0.0 | 8.0 | 0.33 | 0.36 | 0.36 | 91 | 1003.7 |
| 20260507183033 | 12 | 11 | 1.6 | 22.5 | 0.15 | 0.18 | 0.18 | 90 | 1003.6 |
| 20260507181520 | 13 | 11 | 6.4 | 25.7 | 0.03 | 0.05 | 0.05 | 88 | 1003.7 |
| 20260507180032 | 13 | 11 | 9.7 | 32.2 | 0.00 | 0.03 | 0.03 | 86 | 1003.2 |
| 20260507174519 | 14 | 11 | 9.7 | 37.0 | 0.00 | 0.03 | 0.03 | 85 | 1002.8 |
| 20260507173017 | 14 | 11 | 14.5 | 45.1 | 0.00 | 0.03 | 0.03 | 84 | 1002.9 |
| 20260507171514 | 15 | 12 | 8.0 | 38.6 | 0.00 | 0.03 | 0.03 | 83 | 1003.2 |
| 20260507170018 | 15 | 12 | 16.1 | 45.1 | 0.00 | 0.03 | 0.03 | 83 | 1003.2 |
| 20260507164513 | 15 | 13 | 16.1 | 46.7 | 0.00 | 0.03 | 0.03 | 83 | 1003.3 |
| 20260507163012 | 15 | 13 | 20.9 | 45.1 | 0.00 | 0.03 | 0.03 | 82 | 1003.8 |
| 20260507161509 | 15 | 12 | 16.1 | 45.1 | 0.00 | 0.03 | 0.03 | 81 | 1004.1 |
| 20260507160009 | 15 | 12 | 19.3 | 43.5 | 0.00 | 0.03 | 0.03 | 82 | 1004.3 |
| 20260507154508 | 15 | 12 | 8.0 | 41.8 | 0.00 | 0.03 | 0.03 | 82 | 1004.9 |
| 20260507153011 | 15 | 11 | 11.3 | 51.5 | 0.00 | 0.03 | 0.03 | 82 | 1004.7 |
| 20260507151505 | 15 | 12 | 9.7 | 45.1 | 0.00 | 0.03 | 0.03 | 83 | 1005.1 |
| 20260507150005 | 15 | 13 | 14.5 | 41.8 | 0.00 | 0.03 | 0.03 | 83 | 1005.6 |
| 20260507144501 | 15 | 11 | 14.5 | 48.3 | 0.00 | 0.03 | 0.03 | 83 | 1006.0 |
| 20260507143107 | 15 | 12 | 12.9 | 41.8 | 0.00 | 0.03 | 0.03 | 83 | 1006.1 |
| 20260507141601 | 15 | 11 | 24.1 | 56.3 | 0.00 | 0.03 | 0.03 | 82 | 1006.3 |
| 20260507140100 | 16 | 12 | 12.9 | 49.9 | 0.00 | 0.03 | 0.03 | 81 | 1006.5 |
| 20260507134559 | 15 | 11 | 9.7 | 48.3 | 0.00 | 0.03 | 0.03 | 82 | 1006.5 |
| 20260507133100 | 15 | 13 | 17.7 | 40.2 | 0.00 | 0.03 | 0.03 | 83 | 1006.3 |
| 20260507131613 | 15 | 13 | 11.3 | 45.1 | 0.00 | 0.03 | 0.03 | 84 | 1006.5 |
| 20260507130055 | 15 | 11 | 9.7 | 30.6 | 0.00 | 0.03 | 0.03 | 86 | 1006.8 |
| 20260507124553 | 14 | 12 | 14.5 | 51.5 | 0.03 | 0.03 | 0.03 | 88 | 1006.8 |
| 20260507123048 | 13 | 11 | 17.7 | 53.1 | 0.03 | 0.03 | 0.03 | 90 | 1007.1 |
| 20260507121545 | 13 | 12 | 14.5 | 53.1 | 0.03 | 0.03 | 0.03 | 90 | 1007.4 |
| 20260507120042 | 13 | 11 | 12.9 | 43.5 | 0.03 | 0.03 | 0.03 | 90 | 1008.1 |
| 20260507114541 | 13 | 13 | 20.9 | 43.5 | 0.00 | 0.00 | 0.00 | 88 | 1008.4 |
| 20260507113038 | 13 | 13 | 9.7 | 45.1 | 0.00 | 0.00 | 0.00 | 88 | 1008.8 |
| 20260507111537 | 13 | 12 | 3.2 | 32.2 | 0.00 | 0.00 | 0.00 | 90 | 1009.1 |
| 20260507110046 | 12 | 11 | 4.8 | 24.1 | 0.00 | 0.00 | 0.00 | 92 | 1009.3 |
| 20260507104533 | 12 | 11 | 0.0 | 22.5 | 0.00 | 0.00 | 0.00 | 92 | 1009.3 |
| 20260507103032 | 11 | 11 | 0.0 | 24.1 | 0.00 | 0.00 | 0.00 | 92 | 1009.9 |
| 20260507101540 | 11 | 12 | 0.0 | 14.5 | 0.00 | 0.00 | 0.00 | 91 | 1009.7 |
| 20260507100034 | 11 | 12 | 0.0 | 12.9 | 0.00 | 0.00 | 0.00 | 91 | 1010.4 |
| 20260507094528 | 11 | 5 | 0.0 | 20.9 | 0.00 | 0.00 | 0.00 | 91 | 1010.5 |
| 20260507093027 | 11 | 11 | 3.2 | 24.1 | 0.00 | 0.00 | 0.00 | 91 | 1011.2 |
| 20260507091524 | 11 | 11 | 3.2 | 24.1 | 0.00 | 0.00 | 0.00 | 92 | 1010.8 |
| 20260507090031 | 11 | 11 | 6.4 | 29.0 | 0.00 | 0.00 | 0.00 | 91 | 1010.8 |
| 20260507084531 | 11 | 12 | 4.8 | 30.6 | 0.00 | 0.00 | 0.00 | 91 | 1010.3 |
| 20260507083016 | 11 | 11 | 3.2 | 22.5 | 0.00 | 0.00 | 0.00 | 91 | 1010.8 |
| 20260507081515 | 11 | 11 | 8.0 | 33.8 | 0.00 | 0.00 | 0.00 | 90 | 1010.8 |
| 20260507080010 | 11 | 12 | 6.4 | 40.2 | 0.00 | 0.00 | 0.00 | 88 | 1011.1 |
| 20260507074522 | 11 | 11 | 1.6 | 17.7 | 0.00 | 0.00 | 0.00 | 87 | 1011.2 |
| 20260507073005 | 12 | 12 | 1.6 | 16.1 | 0.00 | 0.00 | 0.00 | 86 | 1011.5 |
| 20260507071502 | 12 | 13 | 3.2 | 24.1 | 0.00 | 0.00 | 0.00 | 84 | 1012.0 |
| 20260507070108 | 12 | 11 | 3.2 | 20.9 | 0.00 | 0.00 | 0.00 | 82 | 1011.5 |
| 20260507064600 | 13 | 11 | 1.6 | 20.9 | 0.00 | 0.00 | 0.00 | 80 | 1011.8 |
| 20260507063058 | 13 | 11 | 0.0 | 3.2 | 0.00 | 0.00 | 0.00 | 80 | 1011.9 |
| 20260507061553 | 12 | 11 | 0.0 | 1.6 | 0.00 | 0.00 | 0.00 | 79 | 1012.4 |
| 20260507054555 | 12 | 15 | 0.0 | 0.0 | 0.00 | 0.00 | 0.00 | 75 | 1012.6 |
| 20260507053052 | 12 | 16 | 0.0 | 0.0 | 0.00 | 0.00 | 0.00 | 70 | 1012.9 |
| 20260507051543 | 14 | 17 | 0.0 | 3.2 | 0.00 | 0.00 | 0.00 | 69 | 1013.4 |
| 20260507050043 | 14 | 11 | 0.0 | 3.2 | 0.00 | 0.00 | 0.00 | 70 | 1013.6 |
| 20260507044539 | 14 | 13 | 0.0 | 8.0 | 0.00 | 0.00 | 0.00 | 70 | 1013.8 |